EDT,Max TemperatureF,Mean TemperatureF,Min TemperatureF,Max Dew PointF,MeanDew PointF,Min DewpointF,Max Humidity, Mean Humidity, Min Humidity, Max Sea Level PressureIn, Mean Sea Level PressureIn, Min Sea Level PressureIn, Max VisibilityMiles, Mean VisibilityMiles, Min VisibilityMiles, Max Wind SpeedMPH, Mean Wind SpeedMPH, Max Gust SpeedMPH,PrecipitationIn, CloudCover, Events, WindDirDegrees
2013-10-1,59,54,49,56,50,46,92,89,77,30.00,29.93,29.86,10,10,7,6,2,,0.00,2,,154
2013-10-2,61,58,56,54,50,47,82,71,58,29.95,29.86,29.82,10,10,10,14,5,22,0.00,2,,210
2013-10-3,60,53,46,50,46,43,90,81,60,30.12,30.05,29.96,10,10,2,7,1,,0.00,0,,135
2013-10-4,61,55,49,50,46,44,87,76,61,30.12,30.08,30.05,10,10,7,7,2,,0.00,6,,22
2013-10-5,62,56,50,46,42,36,75,62,37,30.17,30.12,30.09,10,10,2,10,2,,0.00,6,,1
2013-10-6,62,54,46,54,44,35,88,70,52,30.17,30.08,29.94,10,10,2,16,4,24,0.00,6,Rain,122
2013-10-7,61,58,56,54,51,44,88,76,62,29.93,29.78,29.57,10,9,2,23,10,32,0.00,6,Rain,179
2013-10-8,61,52,43,45,39,34,86,63,37,30.38,30.20,29.85,10,10,7,10,5,20,0.00,2,,283
2013-10-9,71,54,38,46,39,30,91,68,24,30.45,30.39,30.32,10,10,10,8,3,,0.00,0,,151
2013-10-10,71,56,41,50,44,37,88,72,41,30.33,30.26,30.18,10,10,7,5,2,,0.00,0,,145
2013-10-11,72,56,42,52,46,39,91,74,41,30.20,30.17,30.14,10,10,7,6,1,,0.00,0,,98
2013-10-12,76,60,44,55,50,43,92,72,42,30.32,30.25,30.17,10,10,5,6,2,,0.00,0,,185
2013-10-13,72,61,50,51,48,46,85,64,42,30.38,30.32,30.27,10,10,7,12,5,17,0.00,0,,169
2013-10-14,63,56,50,54,51,46,92,83,55,30.29,30.27,30.24,10,7,0,9,6,18,0.00,7,Fog-Rain,183
2013-10-15,68,59,50,56,53,49,93,83,60,30.28,30.21,30.07,10,7,0,6,1,,0.00,6,Fog,134
2013-10-16,71,64,58,55,51,48,84,65,51,30.05,29.92,29.77,10,10,10,15,8,26,0.00,4,Rain,174
2013-10-17,70,62,55,57,51,45,89,71,47,29.82,29.77,29.69,10,10,5,12,5,20,0.00,7,Rain,201
2013-10-18,62,58,54,54,48,38,92,72,47,29.85,29.72,29.61,10,9,3,10,3,17,0.00,7,Rain,249
2013-10-19,65,56,50,48,42,39,82,59,44,29.88,29.79,29.63,10,10,7,15,6,25,0.00,3,Rain,182
2013-10-20,61,56,50,49,36,26,84,51,27,29.97,29.78,29.59,10,10,7,13,8,24,0.00,4,Rain,244
2013-10-21,66,52,37,44,38,34,91,62,38,30.04,29.95,29.82,10,10,10,12,3,21,0.00,4,,176
2013-10-22,61,52,44,45,37,28,82,53,37,29.81,29.73,29.67,10,10,5,14,9,23,0.00,5,Rain,212
2013-10-23,53,46,41,34,32,30,72,58,44,29.76,29.69,29.63,10,10,10,9,3,,0.00,5,,255
2013-10-24,48,42,37,34,29,23,75,60,50,29.86,29.73,29.66,10,10,10,12,5,22,0.00,7,,261
2013-10-25,46,40,35,33,28,24,76,61,43,30.11,30.02,29.86,10,10,10,9,5,18,0.00,7,,275
2013-10-26,45,40,35,37,33,26,85,71,57,30.09,29.90,29.75,10,9,3,15,6,24,0.00,7,Rain,180
2013-10-27,50,42,35,37,33,28,87,67,53,30.00,29.84,29.71,10,10,7,12,5,22,0.00,7,Rain,232
2013-10-28,50,40,30,39,30,20,88,66,38,30.40,30.14,29.95,10,10,4,13,3,24,0.00,4,Rain,252
2013-10-29,41,32,23,31,24,20,91,76,51,30.49,30.42,30.34,10,10,10,7,1,,0.00,1,,332
2013-10-30,48,38,29,35,30,25,87,73,59,30.34,30.24,30.17,10,10,10,6,2,,0.00,6,,164
2013-10-31,61,48,35,57,44,32,87,83,72,30.20,29.90,29.55,10,9,3,17,6,29,0.00,6,Rain,168